sat.trackr.live / text

‹ back to catalog

STARLINK-35619

NORAD 66256 · 2025-245Y

PAYLOAD ACTIVE UNKNOWN

§ Identity

Operator
Country
US
Launch date
2025-10-29
Launch site
AFETR
Launch vehicle
Mass (kg)
RCS (m²)

Purposes: comms

External: N2YO · Heavens-Above · Gunter

§ Orbital elements

Epoch: 2026-09-19T23:09:11.463264Z

Period
93.85 min
Inclination
53.1593°
Eccentricity
0.0001272
Mean motion
15.34390845 rev/d
Perigee alt
461.9 km
Apogee alt
463.6 km
Semi-major
6,840.9 km
B*
4.8383e-4
RAAN
99.8923°
Arg perigee
81.4347°
Mean anomaly
278.6800°
Rev number
5,102

§ Raw data

STARLINK-356191 66256U 25245Y   26262.96471601  .00016001  00000+0  48383-3 0  99912 66256  53.1593  99.8923 0001272  81.4347 278.6800 15.34390845 51023

JSON: /api/v1/satellites/66256 · /tle

For live sub-satellite position, see the globe view (requires WebGL).

§ Visibility from observer

Set your observer location to see the next 7 days of passes ≥ 10°. The values pass through the URL so the page stays shareable.

No JS? Fill the form by hand. The geolocation button needs JavaScript.